Flag for Norway Weather past 2 weeks in Finse, Norway

Now
62 °F

Refreshingly cool.


Feels Like: 62 °F
Forecast: 49 / 68 °F
Wind: No wind

Location: Finsevatn

Current Time: Jul 22, 2014 at 9:54:07 AM

Latest Report: Jul 22, 2014 at 9:00 AM


Visibility: N/A

Pressure: 30.22 "Hg

Humidity: 57%

Dew point: 47 °F

Location of FinseLocation

Historic Weather in Finse — Graph

°F

Finse temperature yesterday

Maximum temperature yesterday: 67 °F (at 5:00 PM)
Minimum temperature yesterday: 45 °F (at 5:00 AM)
Average temperature yesterday: 58 °F

Past Weeks' High & Low Weather Summary

 TemperatureHumidityPressure
High68 °F (Jul 11, 5:00 PM)94% (Jul 8, 12:00 AM)30.33 "Hg (Jul 8, 12:00 AM)
Low42 °F (Jul 8, 3:00 AM)34% (Jul 13, 5:00 PM)29.60 "Hg (Jul 14, 5:00 PM)
Average54 °F73%30.00 "Hg
* Reported Jul 7 8:00 AM — Jul 22 8:00 AM, Finse, Weather by CustomWeather, © 2014

Note: Actual official high and low records may vary slightly from our data, if they occured in-between our weather recording intervals... More about our weather records

Advertising

Finse weather history for previous 24 hours

 ConditionsComfort  
Time TempWeatherWind HumidityBarometerVisibility
8:00 AM
Jul 22
55 °FCool.1 mph77%30.28 "HgN/A
7:00 AM53 °FCool.1 mph79%30.29 "HgN/A
6:00 AM47 °FCool.1 mph88%30.33 "HgN/A
5:00 AM47 °FCool.No wind91%30.33 "HgN/A
3:00 AM48 °FCool.No wind85%30.31 "HgN/A
2:00 AM49 °FCool.1 mph80%30.29 "HgN/A
1:00 AM53 °FCool.1 mph75%30.25 "HgN/A
12:00 AM54 °FCool.1 mph72%30.23 "HgN/A
11:00 PM
Jul 21
57 °FCool.1 mph64%30.19 "HgN/A
10:00 PM62 °FCool.2 mph61%30.14 "HgN/A
9:00 PM63 °FMild.5 mph57%30.11 "HgN/A
8:00 PM66 °FMild.6 mph45%30.07 "HgN/A
7:00 PM66 °FMild.6 mph42%30.06 "HgN/A
6:00 PM65 °FMild.6 mph45%30.07 "HgN/A
5:00 PM67 °FMild.3 mph40%30.05 "HgN/A
4:00 PM65 °FMild.5 mph42%30.07 "HgN/A
2:00 PM64 °FMild.7 mph48%30.08 "HgN/A
1:00 PM63 °FMild.8 mph50%30.08 "HgN/A
12:00 PM62 °FRefreshingly cool.7 mph54%30.09 "HgN/A
11:00 AM60 °FCool.6 mph61%30.11 "HgN/A
10:00 AM59 °FCool.7 mph65%30.11 "HgN/A
9:00 AM58 °FCool.5 mph68%30.12 "HgN/A
Weather by CustomWeather, © 2014

See weather overviewHow to use our weather pages